Regional Weather Roundup
Issued by NWS

Home | Current Version | Previous Version | Graphics & Text | Print | Product List | Glossary On
Versions: 1 2 3 4 5 6 7 8 9 10 11 12 13 14 15 16 17 18 19 20 21 22 23 24 25 26 27 28 29 30 31 32 33 34 35 36 37 38 39 40 41 42 43 44 45 46 47 48 49 50
000
ASUS43 KDTX 270510
RWRMI
MICHIGAN HOURLY REGIONAL WEATHER ROUNDUP
NATIONAL WEATHER SERVICE DETROIT/PONTIAC MI
1200 AM EST SAT DEC 27 2014

NOTE: "FAIR" INDICATES FEW OR NO CLOUDS BELOW 12,000 FEET WITH NO
SIGNIFICANT WEATHER AND/OR OBSTRUCTION TO VISIBILITY.

MIZ047>049-052>055-059>063-066>070-074>076-081>083-270600-
SOUTHEAST LOWER MICHIGAN

CITY           SKY/WX    TMP DP  RH WIND       PRES   REMARKS
ADRIAN         CLOUDY    42  38  85 SW12      30.12S
ALMA           CLOUDY    39  37  91 S5        30.07R
ANN ARBOR      CLOUDY    39  38  96 CALM      30.12R
BAD AXE        CLOUDY    32  32 100 CALM      30.08F
DETROIT CITY   CLOUDY    43  37  79 SW6       30.13R
DETROIT        CLOUDY    40  38  93 S3        30.13S
FLINT          CLOUDY    46  39  76 SW7       30.09F
GROSSE ILE     MOCLDY    39  36  87 SW5       30.12R
HILLSDALE      CLOUDY    44  41  90 S8        30.10R
HOWELL         CLOUDY    42  39  90 S6        30.09S

CITY           SKY/WX    TMP DP  RH WIND       PRES   REMARKS
JACKSON        CLOUDY    44  39  82 SW7       30.09S
LAMBERTVILLE   CLOUDY    43  36  75 SW8       30.14R
LANSING        CLOUDY    43  38  82 S8        30.09R
LAPEER         NOT AVBL
MASON          CLOUDY    40  37  87 CALM      30.09S
MONROE         MOCLDY    39  36  87 SW5       30.12R
MT. CLEMENS    CLOUDY    37  37 100 S3        30.10S
PONTIAC        CLOUDY    40  38  93 S3        30.10S
PORT HOPE        N/A     35  33  92 CALM      30.07S
PORT HURON     CLOUDY    39  37  93 SW3       30.12S
TRI CITIES     CLOUDY    41  36  82 S6        30.07F
YPSILANTI      CLOUDY    43  37  79 SW6       30.13R
$$
MIZ043>046-050>051-056>058-064>065-071>073-077>080-270600-
SOUTHWEST LOWER MICHIGAN

CITY           SKY/WX    TMP DP  RH WIND       PRES   REMARKS
BATTLE CREEK   CLOUDY    45  40  82 S5        30.08F
BENTON HARBOR  CLOUDY    47  41  80 S6        30.07S
BIG RAPIDS     CLOUDY    33  33 100 CALM      30.04R FOG
COLDWATER      CLOUDY    43  39  85 S3        30.10R
HOLLAND        CLOUDY    46  40  79 S8        30.05F
GRAND RAPIDS   CLOUDY    44  39  82 S9        30.05F
KALAMAZOO      CLOUDY    46  40  79 S5        30.08F
MARSHALL       CLOUDY    43  39  87 S5        30.09S
MUSKEGON       CLOUDY    40  38  93 S6        30.04S
$$
MIZ016>042-270600-
NORTHERN LOWER MICHIGAN

CITY           SKY/WX    TMP DP  RH WIND       PRES   REMARKS
ALPENA         CLOUDY    37  34  89 S3        30.06S
BEAVER ISLAND  FOG       34  34 100 CALM      30.03F VSB 1
BELLAIRE       CLOUDY    39  35  84 CALM      30.04F
CADILLAC       PTCLDY    30  29  97 CALM      30.02S FOG
CHARLEVOIX     CLOUDY    37  35  92 CALM      30.06S
FRANKFORT      CLOUDY    37  36  96 CALM      30.04R
GAYLORD        CLOUDY    35  33  92 SW5       30.02F
GRAYLING       CLOUDY    35  34  99 SE5       30.04S
HARBOR SPRINGS CLOUDY    35  33  95 CALM      30.04S
HOUGHTON LAKE  CLOUDY    35  33  92 CALM      30.04S
MANISTEE       CLOUDY    32  28  86 E3        30.03S
OSCODA         CLOUDY    35  34  96 CALM      30.07S
PELLSTON       CLOUDY    34  33  96 CALM      30.04S
TRAVERSE CITY  CLOUDY    38  35  89 CALM      30.03S
$$
MIZ007>008-015-270600-
EASTERN UPPER MICHIGAN

CITY           SKY/WX    TMP DP  RH WIND       PRES   REMARKS
KINROSS        CLOUDY    34  34 100 NE3       30.03F
MACKINAC ISLAN CLOUDY    36  36 100 S3        30.03S FOG
NEWBERRY       FOG       32  32 100 N7        30.03S VSB 1
S. S. MARIE    FOG       34  33  96 CALM      30.04R VSB 1/2
$$
MIZ004>006-011>014-085-270600-
CENTRAL UPPER MICHIGAN

CITY           SKY/WX    TMP DP  RH WIND       PRES   REMARKS
MANISTIQUE     RAIN      33  33 100 CALM      30.04S
ESCANABA       CLOUDY    34  30  86 CALM      30.05R
MENOMINEE      CLOUDY    34  32  93 NE5       30.03S
SAWYER-GWINN   CLOUDY    32  31  96 CALM      30.03R FOG
$$
MIZ001>003-009>011-084-270600-
WESTERN UPPER MICHIGAN

CITY           SKY/WX    TMP DP  RH WIND       PRES   REMARKS
IRON MOUNTAIN  CLOUDY    32  30  92 N5        30.02S FOG
HOUGHTON       CLOUDY    31  26  82 N5        30.05S
COPPER HARBOR    N/A     34  26  72 E9        30.07R
IRONWOOD       CLOUDY    28  28 100 CALM      30.03S
$$

ABBREVIATIONS USED IN REMARKS
   TC - TEMPERATURE IN CELSIUS
  WCI - WIND CHILL INDEX
   HX - HEAT INDEX
  VSB - VISIBILITY



USA.gov is the U.S. government's official web portal to all federal, state and local government web resources and services.